Location: College Rock
(37.2713°N, 119.1740°W)
Time: 12:12:56
(UTC+00:00)

DELTA 2 R/B (1) - Pass Details

Date: 29 October 2020
Orbit: 790 x 803 km, 39.6° (Epoch: 01 December)

Event Time Altitude Azimuth Distance (km) Brightness Sun altitude
Exits shadow 12:19:23 38° 204° (SSW) 1,194 4.2 -24.3°
Drops below altitude 10° 12:24:17 10° 144° (SE) 2,365 6.5 -23.3°
Sets 12:26:54 0° 136° (SE) 3,294 7.4 -22.8°
